| time (UTC) | temp F | wind direction | speed knots | gust knots | rain 1hr in | rain 24hr in | rain mn in | humidity % | barometer mb |
| 20260507060058 | 46 | 0 | 0.0 | 2.6 | 0.00 | 0.18 | 0.00 | 93 | 1014.3 |
| 20260507055556 | 46 | 122 | 0.9 | 2.6 | 0.00 | 0.20 | 0.00 | 93 | 1014.3 |
| 20260507055053 | 46 | 166 | 0.9 | 2.6 | 0.00 | 0.20 | 0.00 | 93 | 1014.1 |
| 20260507054606 | 46 | 0 | 0.0 | 2.6 | 0.00 | 0.20 | 0.00 | 93 | 1014.2 |
| 20260507054052 | 46 | 210 | 0.0 | 2.6 | 0.00 | 0.20 | 0.00 | 94 | 1014.1 |
| 20260507053552 | 46 | 0 | 0.0 | 0.9 | 0.00 | 0.20 | 0.00 | 94 | 1014.0 |
| 20260507053055 | 46 | 154 | 0.0 | 0.9 | 0.00 | 0.20 | 0.00 | 94 | 1014.1 |
| 20260507052556 | 46 | 188 | 0.0 | 0.9 | 0.00 | 0.20 | 0.00 | 94 | 1014.0 |
| 20260507052056 | 46 | 81 | 0.0 | 0.9 | 0.00 | 0.20 | 0.00 | 94 | 1014.0 |
| 20260507051555 | 46 | 240 | 0.0 | 0.9 | 0.00 | 0.20 | 0.00 | 94 | 1014.0 |
| 20260507051055 | 46 | 0 | 0.0 | 0.0 | 0.00 | 0.20 | 0.00 | 94 | 1013.8 |
| 20260507050555 | 46 | 160 | 0.0 | 0.9 | 0.00 | 0.20 | 0.00 | 94 | 1013.8 |
| 20260507050100 | 46 | 0 | 0.0 | 0.9 | 0.00 | 0.20 | 0.00 | 94 | 1013.7 |
| 20260507045559 | 46 | 0 | 0.0 | 0.9 | 0.00 | 0.20 | 0.00 | 94 | 1013.6 |
| 20260507045055 | 46 | 0 | 0.0 | 0.9 | 0.00 | 0.20 | 0.00 | 94 | 1013.5 |
| 20260507044555 | 46 | 0 | 0.0 | 0.9 | 0.00 | 0.20 | 0.00 | 94 | 1013.4 |
| 20260507044052 | 45 | 0 | 0.0 | 0.0 | 0.00 | 0.20 | 0.00 | 94 | 1013.6 |
| 20260507043556 | 45 | 0 | 0.0 | 0.0 | 0.00 | 0.20 | 0.00 | 94 | 1013.6 |
| 20260507043059 | 45 | 0 | 0.0 | 0.0 | 0.00 | 0.20 | 0.00 | 94 | 1013.4 |
| 20260507042556 | 45 | 0 | 0.0 | 0.9 | 0.00 | 0.20 | 0.00 | 94 | 1013.3 |
| 20260507042052 | 45 | 187 | 0.0 | 0.9 | 0.00 | 0.20 | 0.00 | 94 | 1013.4 |
| 20260507041605 | 45 | 0 | 0.0 | 0.9 | 0.00 | 0.20 | 0.00 | 94 | 1013.3 |
| 20260507041054 | 45 | 0 | 0.0 | 0.9 | 0.00 | 0.20 | 0.00 | 94 | 1013.2 |
| 20260507040555 | 45 | 0 | 0.0 | 0.9 | 0.00 | 0.20 | 0.00 | 94 | 1013.2 |
| 20260507040059 | 45 | 106 | 0.0 | 0.9 | 0.00 | 0.20 | 0.00 | 94 | 1013.2 |
| 20260507035552 | 45 | 0 | 0.0 | 0.9 | 0.00 | 0.21 | 0.00 | 94 | 1013.1 |
| 20260507035056 | 45 | 129 | 0.0 | 0.9 | 0.00 | 0.21 | 0.00 | 94 | 1013.1 |
| 20260507034557 | 45 | 243 | 0.0 | 0.9 | 0.00 | 0.21 | 0.00 | 94 | 1013.2 |
| 20260507034056 | 45 | 0 | 0.0 | 0.9 | 0.00 | 0.21 | 0.00 | 94 | 1013.1 |
| 20260507033557 | 45 | 149 | 0.0 | 1.7 | 0.00 | 0.21 | 0.00 | 94 | 1013.1 |
| 20260507033055 | 46 | 0 | 0.0 | 1.7 | 0.00 | 0.21 | 0.00 | 95 | 1013.0 |
| 20260507032555 | 45 | 160 | 0.0 | 1.7 | 0.00 | 0.21 | 0.00 | 95 | 1013.1 |
| 20260507032054 | 45 | 0 | 0.0 | 0.9 | 0.00 | 0.21 | 0.00 | 95 | 1013.0 |
| 20260507031559 | 45 | 0 | 0.0 | 2.6 | 0.00 | 0.21 | 0.00 | 95 | 1013.0 |
| 20260507031059 | 45 | 239 | 0.0 | 2.6 | 0.00 | 0.21 | 0.00 | 95 | 1013.0 |
| 20260507030555 | 45 | 160 | 0.0 | 2.6 | 0.00 | 0.21 | 0.00 | 94 | 1013.0 |
| 20260507025555 | 45 | 0 | 0.0 | 1.7 | 0.00 | 0.24 | 0.00 | 95 | 1012.9 |
| 20260507025054 | 45 | 0 | 0.0 | 0.0 | 0.00 | 0.24 | 0.00 | 95 | 1012.9 |
| 20260507024557 | 45 | 0 | 0.0 | 1.7 | 0.00 | 0.24 | 0.00 | 95 | 1012.9 |
| 20260507024053 | 45 | 161 | 0.0 | 1.7 | 0.00 | 0.24 | 0.00 | 95 | 1012.9 |
| 20260507023556 | 45 | 0 | 0.0 | 0.9 | 0.00 | 0.24 | 0.00 | 95 | 1012.9 |
| 20260507023113 | 45 | 0 | 0.0 | 2.6 | 0.00 | 0.24 | 0.00 | 95 | 1013.0 |
| 20260507022600 | 45 | 0 | 0.0 | 2.6 | 0.00 | 0.24 | 0.00 | 95 | 1012.9 |
| 20260507022056 | 45 | 185 | 0.0 | 2.6 | 0.00 | 0.24 | 0.00 | 95 | 1012.9 |
| 20260507021557 | 45 | 0 | 0.0 | 2.6 | 0.00 | 0.24 | 0.00 | 95 | 1012.7 |
| 20260507021056 | 45 | 188 | 0.0 | 2.6 | 0.00 | 0.24 | 0.00 | 95 | 1012.7 |
| 20260507020556 | 45 | 184 | 0.0 | 2.6 | 0.00 | 0.24 | 0.00 | 95 | 1012.8 |
| 20260507020055 | 45 | 167 | 0.0 | 2.6 | 0.00 | 0.24 | 0.00 | 95 | 1012.7 |
| 20260507015555 | 45 | 138 | 0.0 | 3.5 | 0.00 | 0.25 | 0.00 | 95 | 1012.6 |
| 20260507015055 | 45 | 221 | 0.0 | 3.5 | 0.00 | 0.25 | 0.00 | 95 | 1012.7 |
| 20260507014609 | 45 | 164 | 0.0 | 3.5 | 0.00 | 0.25 | 0.00 | 95 | 1012.6 |
| 20260507014056 | 45 | 0 | 0.0 | 1.7 | 0.00 | 0.25 | 0.00 | 95 | 1012.6 |
| 20260507013557 | 46 | 0 | 0.0 | 1.7 | 0.00 | 0.25 | 0.00 | 95 | 1012.5 |
| 20260507013112 | 45 | 142 | 0.0 | 1.7 | 0.00 | 0.25 | 0.00 | 95 | 1012.5 |
| 20260507012555 | 46 | 156 | 0.0 | 1.7 | 0.00 | 0.25 | 0.00 | 95 | 1012.5 |
| 20260507012055 | 46 | 167 | 0.0 | 0.9 | 0.00 | 0.25 | 0.00 | 95 | 1012.3 |
| 20260507011556 | 46 | 0 | 0.0 | 1.7 | 0.00 | 0.25 | 0.00 | 95 | 1012.4 |
| 20260507011055 | 46 | 0 | 0.0 | 1.7 | 0.00 | 0.25 | 0.00 | 95 | 1012.3 |
| 20260507010556 | 46 | 0 | 0.0 | 0.9 | 0.00 | 0.25 | 0.00 | 95 | 1012.2 |
| 20260507010054 | 46 | 0 | 0.0 | 0.9 | 0.00 | 0.25 | 0.00 | 95 | 1012.2 |
| 20260507005552 | 46 | 0 | 0.0 | 0.9 | 0.00 | 0.26 | 0.00 | 95 | 1012.2 |
| 20260507005051 | 46 | 0 | 0.0 | 0.9 | 0.00 | 0.26 | 0.00 | 95 | 1012.2 |
| 20260507004556 | 46 | 0 | 0.0 | 1.7 | 0.00 | 0.26 | 0.00 | 95 | 1012.2 |
| 20260507004052 | 46 | 0 | 0.0 | 1.7 | 0.00 | 0.26 | 0.00 | 95 | 1012.1 |
| 20260507003555 | 46 | 0 | 0.0 | 1.7 | 0.00 | 0.26 | 0.00 | 95 | 1012.1 |
| 20260507003055 | 46 | 0 | 0.0 | 1.7 | 0.00 | 0.26 | 0.00 | 95 | 1012.0 |
| 20260507002556 | 46 | 0 | 0.0 | 1.7 | 0.00 | 0.26 | 0.00 | 95 | 1012.0 |
| 20260507002056 | 46 | 0 | 0.0 | 1.7 | 0.00 | 0.26 | 0.00 | 95 | 1012.0 |
| 20260507001612 | 46 | 0 | 0.0 | 2.6 | 0.00 | 0.26 | 0.00 | 95 | 1011.9 |
| 20260507001055 | 46 | 0 | 0.0 | 2.6 | 0.00 | 0.26 | 0.00 | 95 | 1012.0 |
| 20260507000555 | 46 | 0 | 0.0 | 2.6 | 0.00 | 0.26 | 0.00 | 95 | 1011.9 |
| 20260507000059 | 46 | 134 | 0.9 | 2.6 | 0.00 | 0.26 | 0.00 | 95 | 1011.9 |
| 20260506235556 | 46 | 139 | 0.0 | 2.6 | 0.00 | 0.27 | 0.00 | 95 | 1011.9 |
| 20260506235054 | 46 | 182 | 0.0 | 1.7 | 0.00 | 0.27 | 0.00 | 95 | 1012.0 |
| 20260506234555 | 46 | 0 | 0.0 | 1.7 | 0.00 | 0.27 | 0.00 | 95 | 1011.9 |
| 20260506234057 | 46 | 134 | 0.0 | 1.7 | 0.00 | 0.27 | 0.00 | 95 | 1011.9 |
| 20260506233559 | 46 | 0 | 0.0 | 1.7 | 0.00 | 0.27 | 0.00 | 95 | 1011.8 |
| 20260506233059 | 46 | 163 | 0.0 | 1.7 | 0.00 | 0.27 | 0.00 | 95 | 1011.8 |
| 20260506232555 | 46 | 0 | 0.0 | 1.7 | 0.00 | 0.27 | 0.00 | 95 | 1011.7 |
| 20260506232056 | 46 | 136 | 0.0 | 1.7 | 0.00 | 0.27 | 0.00 | 95 | 1011.8 |
| 20260506231554 | 46 | 193 | 0.0 | 2.6 | 0.00 | 0.27 | 0.00 | 95 | 1011.6 |
| 20260506231056 | 46 | 0 | 0.0 | 2.6 | 0.00 | 0.27 | 0.00 | 95 | 1011.7 |
| 20260506230555 | 46 | 156 | 0.0 | 2.6 | 0.00 | 0.27 | 0.00 | 96 | 1011.7 |
| 20260506230055 | 46 | 237 | 0.0 | 1.7 | 0.00 | 0.27 | 0.00 | 96 | 1011.8 |
| 20260506225559 | 46 | 0 | 0.0 | 1.7 | 0.00 | 0.29 | 0.00 | 95 | 1011.6 |
| 20260506225056 | 46 | 0 | 0.0 | 0.9 | 0.00 | 0.29 | 0.00 | 96 | 1011.7 |
| 20260506224556 | 46 | 0 | 0.0 | 0.9 | 0.00 | 0.29 | 0.00 | 96 | 1011.7 |
| 20260506224055 | 46 | 0 | 0.0 | 0.9 | 0.00 | 0.29 | 0.00 | 96 | 1011.6 |
| 20260506223555 | 46 | 0 | 0.0 | 0.9 | 0.00 | 0.29 | 0.00 | 95 | 1011.7 |
| 20260506223115 | 46 | 0 | 0.0 | 1.7 | 0.00 | 0.29 | 0.00 | 95 | 1011.5 |
| 20260506222555 | 46 | 58 | 0.0 | 1.7 | 0.00 | 0.29 | 0.00 | 95 | 1011.5 |
| 20260506222059 | 46 | 230 | 0.0 | 4.3 | 0.00 | 0.29 | 0.00 | 95 | 1011.5 |
| 20260506221604 | 46 | 0 | 0.9 | 4.3 | 0.00 | 0.29 | 0.00 | 95 | 1011.4 |
| 20260506221056 | 46 | 132 | 0.0 | 0.9 | 0.00 | 0.29 | 0.00 | 96 | 1011.4 |
| 20260506220552 | 46 | 315 | 0.0 | 2.6 | 0.00 | 0.29 | 0.00 | 96 | 1011.4 |
| 20260506220056 | 46 | 0 | 0.0 | 2.6 | 0.00 | 0.29 | 0.00 | 96 | 1011.3 |
| 20260506215556 | 46 | 58 | 0.0 | 2.6 | 0.00 | 0.32 | 0.29 | 96 | 1011.2 |
| 20260506215056 | 46 | 108 | 0.0 | 0.9 | 0.00 | 0.32 | 0.29 | 96 | 1011.3 |
| 20260506214608 | 46 | 200 | 0.0 | 0.9 | 0.00 | 0.32 | 0.29 | 96 | 1011.2 |
| 20260506214058 | 46 | 0 | 0.0 | 0.9 | 0.00 | 0.32 | 0.29 | 96 | 1011.3 |
| 20260506213556 | 46 | 0 | 0.0 | 1.7 | 0.00 | 0.32 | 0.29 | 96 | 1011.2 |
| 20260506213100 | 46 | 0 | 0.0 | 1.7 | 0.00 | 0.32 | 0.29 | 96 | 1011.1 |
| 20260506212556 | 46 | 342 | 0.0 | 1.7 | 0.00 | 0.32 | 0.29 | 96 | 1011.0 |
| 20260506212058 | 46 | 227 | 0.0 | 1.7 | 0.00 | 0.32 | 0.29 | 96 | 1011.0 |
| 20260506211557 | 47 | 206 | 0.0 | 2.6 | 0.00 | 0.32 | 0.29 | 96 | 1010.9 |
| 20260506211056 | 46 | 203 | 0.0 | 2.6 | 0.00 | 0.32 | 0.29 | 96 | 1010.9 |
| 20260506210556 | 47 | 165 | 0.0 | 1.7 | 0.00 | 0.32 | 0.29 | 96 | 1010.9 |
| 20260506210133 | 46 | 0 | 0.0 | 1.7 | 0.00 | 0.32 | 0.29 | 96 | 1010.9 |
| 20260506205555 | 47 | 123 | 0.0 | 0.9 | 0.00 | 0.37 | 0.29 | 96 | 1010.9 |
| 20260506205055 | 46 | 0 | 0.0 | 2.6 | 0.00 | 0.37 | 0.29 | 96 | 1010.8 |
| 20260506204600 | 46 | 165 | 0.0 | 2.6 | 0.00 | 0.37 | 0.29 | 96 | 1010.9 |
| 20260506204055 | 46 | 152 | 0.0 | 2.6 | 0.00 | 0.37 | 0.29 | 96 | 1010.7 |
| 20260506203554 | 46 | 148 | 0.0 | 2.6 | 0.00 | 0.37 | 0.29 | 96 | 1010.8 |
| 20260506203104 | 46 | 130 | 0.0 | 2.6 | 0.00 | 0.37 | 0.29 | 96 | 1010.9 |
| 20260506202608 | 46 | 212 | 0.9 | 2.6 | 0.00 | 0.37 | 0.29 | 96 | 1010.7 |
| 20260506202053 | 46 | 191 | 0.0 | 1.7 | 0.00 | 0.37 | 0.29 | 96 | 1010.7 |
| 20260506201600 | 46 | 172 | 0.0 | 1.7 | 0.00 | 0.37 | 0.29 | 95 | 1010.7 |
| 20260506201054 | 46 | 156 | 0.0 | 2.6 | 0.00 | 0.37 | 0.29 | 95 | 1010.9 |
| 20260506200552 | 46 | 124 | 0.0 | 2.6 | 0.00 | 0.37 | 0.29 | 95 | 1010.8 |
| 20260506200136 | 46 | 0 | 0.0 | 1.7 | 0.00 | 0.37 | 0.29 | 95 | 1010.7 |
| 20260506195552 | 46 | 150 | 0.0 | 0.9 | 0.00 | 0.41 | 0.29 | 95 | 1010.7 |
| 20260506195056 | 46 | 0 | 0.0 | 2.6 | 0.00 | 0.41 | 0.29 | 95 | 1010.7 |
| 20260506194614 | 46 | 0 | 0.0 | 2.6 | 0.00 | 0.41 | 0.29 | 95 | 1010.7 |
| 20260506194056 | 46 | 0 | 0.0 | 2.6 | 0.00 | 0.41 | 0.29 | 95 | 1010.5 |
| 20260506193555 | 46 | 0 | 0.0 | 1.7 | 0.00 | 0.40 | 0.28 | 95 | 1010.6 |
| 20260506193055 | 46 | 169 | 0.0 | 1.7 | 0.00 | 0.40 | 0.28 | 95 | 1010.5 |
| 20260506192553 | 46 | 146 | 0.0 | 2.6 | 0.00 | 0.40 | 0.28 | 95 | 1010.5 |
| 20260506192056 | 47 | 141 | 0.0 | 2.6 | 0.00 | 0.40 | 0.28 | 95 | 1010.4 |
| 20260506191556 | 47 | 0 | 0.0 | 2.6 | 0.00 | 0.40 | 0.28 | 95 | 1010.3 |
| 20260506191056 | 47 | 143 | 0.0 | 0.9 | 0.00 | 0.40 | 0.28 | 95 | 1010.2 |
| 20260506190553 | 47 | 155 | 0.0 | 1.7 | 0.00 | 0.40 | 0.28 | 95 | 1010.2 |
| 20260506190056 | 47 | 0 | 0.0 | 2.6 | 0.00 | 0.40 | 0.28 | 95 | 1010.1 |
| 20260506185553 | 47 | 0 | 0.0 | 2.6 | 0.00 | 0.48 | 0.28 | 95 | 1010.1 |
| 20260506185052 | 47 | 135 | 0.0 | 1.7 | 0.00 | 0.48 | 0.28 | 95 | 1010.0 |
| 20260506184556 | 47 | 160 | 0.0 | 2.6 | 0.00 | 0.48 | 0.28 | 95 | 1010.0 |
| 20260506184053 | 47 | 0 | 0.0 | 2.6 | 0.00 | 0.48 | 0.28 | 95 | 1010.0 |
| 20260506183556 | 47 | 0 | 0.0 | 2.6 | 0.00 | 0.48 | 0.28 | 95 | 1010.0 |
| 20260506183054 | 47 | 0 | 0.0 | 2.6 | 0.00 | 0.48 | 0.28 | 95 | 1009.8 |
| 20260506182555 | 47 | 166 | 0.0 | 2.6 | 0.00 | 0.48 | 0.28 | 95 | 1009.7 |
| 20260506182058 | 47 | 106 | 0.9 | 2.6 | 0.00 | 0.48 | 0.28 | 95 | 1009.7 |
| 20260506181556 | 47 | 141 | 0.0 | 3.5 | 0.00 | 0.48 | 0.28 | 95 | 1009.7 |
| 20260506181056 | 47 | 0 | 0.0 | 3.5 | 0.00 | 0.48 | 0.28 | 95 | 1009.8 |
| 20260506180559 | 47 | 188 | 0.0 | 2.6 | 0.00 | 0.48 | 0.28 | 95 | 1009.6 |
| 20260506180105 | 47 | 195 | 0.9 | 3.5 | 0.00 | 0.48 | 0.28 | 95 | 1009.6 |
| 20260506175554 | 47 | 0 | 0.0 | 3.5 | 0.00 | 0.55 | 0.28 | 95 | 1009.6 |
| 20260506175057 | 47 | 170 | 0.0 | 3.5 | 0.00 | 0.55 | 0.28 | 94 | 1009.5 |
| 20260506174558 | 47 | 227 | 0.9 | 3.5 | 0.00 | 0.55 | 0.28 | 94 | 1009.5 |
| 20260506174054 | 47 | 138 | 0.0 | 1.7 | 0.00 | 0.55 | 0.28 | 94 | 1009.5 |
| 20260506173554 | 47 | 160 | 0.0 | 3.5 | 0.00 | 0.55 | 0.28 | 94 | 1009.4 |
| 20260506173116 | 47 | 0 | 0.0 | 3.5 | 0.00 | 0.55 | 0.28 | 94 | 1009.4 |
| 20260506172558 | 47 | 172 | 0.0 | 3.5 | 0.00 | 0.55 | 0.28 | 94 | 1009.3 |
| 20260506172053 | 47 | 192 | 0.0 | 3.5 | 0.00 | 0.55 | 0.28 | 94 | 1009.3 |
| 20260506171601 | 47 | 167 | 0.9 | 3.5 | 0.00 | 0.55 | 0.28 | 94 | 1009.2 |
| 20260506171057 | 47 | 229 | 0.0 | 2.6 | 0.00 | 0.55 | 0.28 | 94 | 1009.3 |
| 20260506170559 | 47 | 207 | 0.0 | 3.5 | 0.00 | 0.55 | 0.28 | 94 | 1009.3 |
| 20260506170058 | 47 | 151 | 0.0 | 3.5 | 0.00 | 0.55 | 0.28 | 94 | 1009.3 |
| 20260506165558 | 47 | 184 | 0.0 | 3.5 | 0.00 | 0.62 | 0.28 | 94 | 1009.3 |
| 20260506165056 | 47 | 127 | 0.0 | 3.5 | 0.00 | 0.62 | 0.28 | 94 | 1009.2 |
| 20260506164558 | 47 | 0 | 0.0 | 2.6 | 0.00 | 0.62 | 0.28 | 94 | 1009.1 |
| 20260506164057 | 47 | 167 | 0.0 | 2.6 | 0.00 | 0.62 | 0.28 | 94 | 1009.2 |
| 20260506163556 | 47 | 0 | 0.0 | 2.6 | 0.00 | 0.62 | 0.28 | 94 | 1009.1 |
| 20260506163103 | 47 | 249 | 0.0 | 3.5 | 0.00 | 0.62 | 0.28 | 94 | 1009.1 |
| 20260506162555 | 47 | 0 | 0.0 | 3.5 | 0.00 | 0.62 | 0.28 | 94 | 1009.1 |
| 20260506162057 | 47 | 0 | 0.0 | 2.6 | 0.00 | 0.62 | 0.28 | 94 | 1009.0 |
| 20260506161558 | 47 | 0 | 0.0 | 1.7 | 0.00 | 0.62 | 0.28 | 94 | 1009.0 |
| 20260506161057 | 47 | 162 | 0.0 | 3.5 | 0.00 | 0.62 | 0.28 | 94 | 1009.0 |
| 20260506160555 | 47 | 139 | 0.0 | 3.5 | 0.00 | 0.62 | 0.28 | 94 | 1009.0 |
| 20260506160107 | 47 | 123 | 0.9 | 2.6 | 0.00 | 0.62 | 0.28 | 94 | 1009.0 |
| 20260506155600 | 47 | 0 | 0.0 | 2.6 | 0.00 | 0.66 | 0.28 | 94 | 1008.9 |
| 20260506155057 | 47 | 245 | 0.0 | 2.6 | 0.00 | 0.66 | 0.28 | 94 | 1008.9 |
| 20260506154556 | 47 | 131 | 0.0 | 5.2 | 0.00 | 0.66 | 0.28 | 94 | 1008.8 |
| 20260506154057 | 47 | 154 | 0.9 | 5.2 | 0.00 | 0.66 | 0.28 | 94 | 1008.9 |
| 20260506153557 | 47 | 203 | 0.9 | 3.5 | 0.00 | 0.66 | 0.28 | 94 | 1008.8 |
| 20260506153057 | 48 | 156 | 0.0 | 3.5 | 0.00 | 0.66 | 0.28 | 94 | 1008.7 |
| 20260506152557 | 47 | 0 | 0.9 | 3.5 | 0.01 | 0.66 | 0.28 | 94 | 1008.7 |
| 20260506152057 | 48 | 141 | 0.0 | 3.5 | 0.01 | 0.66 | 0.28 | 94 | 1008.8 |
| 20260506151558 | 47 | 194 | 0.9 | 3.5 | 0.01 | 0.66 | 0.28 | 94 | 1008.7 |
| 20260506151057 | 48 | 0 | 0.0 | 3.5 | 0.01 | 0.66 | 0.28 | 94 | 1008.8 |
| 20260506150557 | 47 | 150 | 0.9 | 4.3 | 0.01 | 0.66 | 0.28 | 94 | 1008.6 |
| 20260506150104 | 48 | 0 | 0.9 | 4.3 | 0.02 | 0.66 | 0.28 | 94 | 1008.5 |
| 20260506145602 | 48 | 234 | 0.9 | 6.1 | 0.02 | 0.66 | 0.28 | 94 | 1008.6 |
| 20260506145057 | 48 | 0 | 0.9 | 6.1 | 0.02 | 0.65 | 0.27 | 94 | 1008.7 |
| 20260506144555 | 48 | 155 | 0.9 | 4.3 | 0.02 | 0.65 | 0.27 | 93 | 1008.7 |
| 20260506144057 | 48 | 204 | 0.9 | 4.3 | 0.02 | 0.65 | 0.27 | 93 | 1008.6 |
| 20260506143557 | 49 | 206 | 0.0 | 3.5 | 0.02 | 0.65 | 0.27 | 94 | 1008.6 |
| 20260506143055 | 49 | 0 | 0.0 | 3.5 | 0.03 | 0.65 | 0.27 | 94 | 1008.3 |
| 20260506142557 | 49 | 0 | 0.0 | 3.5 | 0.02 | 0.64 | 0.26 | 94 | 1008.3 |
| 20260506142056 | 49 | 197 | 0.0 | 3.5 | 0.02 | 0.64 | 0.26 | 94 | 1008.3 |
| 20260506141556 | 49 | 162 | 0.9 | 3.5 | 0.02 | 0.64 | 0.26 | 93 | 1008.4 |
| 20260506141056 | 49 | 230 | 0.0 | 2.6 | 0.02 | 0.64 | 0.26 | 94 | 1008.5 |
| 20260506140557 | 49 | 0 | 0.9 | 3.5 | 0.02 | 0.64 | 0.26 | 94 | 1008.2 |
| 20260506140100 | 49 | 143 | 0.0 | 3.5 | 0.01 | 0.63 | 0.25 | 94 | 1008.2 |
| 20260506135554 | 50 | 151 | 0.0 | 2.6 | 0.02 | 0.63 | 0.25 | 94 | 1008.3 |
| 20260506135055 | 50 | 159 | 0.0 | 2.6 | 0.01 | 0.62 | 0.25 | 94 | 1008.1 |
| 20260506134619 | 50 | 0 | 0.0 | 2.6 | 0.02 | 0.62 | 0.25 | 94 | 1008.1 |
| 20260506134057 | 50 | 207 | 0.0 | 1.7 | 0.03 | 0.62 | 0.25 | 94 | 1008.0 |
| 20260506133556 | 50 | 143 | 0.0 | 4.3 | 0.03 | 0.62 | 0.25 | 94 | 1008.1 |
| 20260506133059 | 50 | 41 | 0.0 | 4.3 | 0.02 | 0.62 | 0.24 | 94 | 1008.0 |
| 20260506132555 | 50 | 0 | 0.9 | 3.5 | 0.02 | 0.62 | 0.24 | 94 | 1008.0 |
| 20260506132055 | 50 | 171 | 0.0 | 3.5 | 0.02 | 0.62 | 0.24 | 94 | 1008.0 |
| 20260506131613 | 50 | 124 | 0.9 | 2.6 | 0.02 | 0.62 | 0.24 | 94 | 1008.1 |
| 20260506131053 | 50 | 165 | 0.0 | 2.6 | 0.02 | 0.62 | 0.24 | 95 | 1007.9 |
| 20260506130554 | 50 | 159 | 0.0 | 2.6 | 0.02 | 0.62 | 0.24 | 95 | 1007.9 |
| 20260506130100 | 50 | 0 | 0.0 | 2.6 | 0.02 | 0.62 | 0.24 | 94 | 1008.0 |
| 20260506125554 | 50 | 0 | 0.9 | 2.6 | 0.01 | 0.61 | 0.23 | 94 | 1007.9 |
| 20260506125054 | 50 | 207 | 0.0 | 1.7 | 0.01 | 0.61 | 0.23 | 94 | 1007.9 |
| 20260506124614 | 50 | 0 | 0.0 | 2.6 | 0.00 | 0.60 | 0.22 | 94 | 1007.8 |
| 20260506124055 | 50 | 0 | 0.0 | 3.5 | 0.00 | 0.59 | 0.22 | 94 | 1007.8 |
| 20260506123553 | 50 | 105 | 0.9 | 3.5 | 0.00 | 0.59 | 0.22 | 94 | 1007.8 |
| 20260506123103 | 50 | 0 | 0.9 | 2.6 | 0.00 | 0.59 | 0.22 | 94 | 1007.8 |
| 20260506122553 | 50 | 87 | 0.0 | 2.6 | 0.00 | 0.59 | 0.22 | 95 | 1007.7 |
| 20260506122053 | 50 | 0 | 0.9 | 3.5 | 0.00 | 0.59 | 0.22 | 94 | 1007.6 |
| 20260506121607 | 50 | 0 | 0.0 | 3.5 | 0.00 | 0.59 | 0.22 | 95 | 1007.6 |
| 20260506121055 | 50 | 122 | 0.9 | 2.6 | 0.00 | 0.59 | 0.22 | 94 | 1007.6 |
| 20260506120553 | 50 | 0 | 0.0 | 2.6 | 0.00 | 0.59 | 0.22 | 95 | 1007.7 |
| 20260506120055 | 50 | 153 | 0.9 | 2.6 | 0.00 | 0.59 | 0.22 | 95 | 1007.6 |
| 20260506115552 | 50 | 187 | 0.9 | 5.2 | 0.00 | 0.59 | 0.22 | 95 | 1007.5 |
| 20260506115052 | 50 | 0 | 0.9 | 5.2 | 0.00 | 0.59 | 0.22 | 94 | 1007.6 |
| 20260506114555 | 50 | 127 | 0.0 | 4.3 | 0.00 | 0.59 | 0.22 | 95 | 1007.6 |
| 20260506114055 | 50 | 198 | 0.9 | 3.5 | 0.01 | 0.59 | 0.22 | 95 | 1007.5 |
| 20260506113555 | 50 | 165 | 0.9 | 3.5 | 0.01 | 0.59 | 0.22 | 95 | 1007.3 |
| 20260506113053 | 50 | 143 | 0.0 | 3.5 | 0.01 | 0.59 | 0.22 | 95 | 1007.4 |
| 20260506112555 | 50 | 167 | 0.0 | 2.6 | 0.00 | 0.59 | 0.21 | 95 | 1007.5 |
| 20260506112054 | 50 | 184 | 0.0 | 3.5 | 0.00 | 0.59 | 0.21 | 95 | 1007.5 |
| 20260506111612 | 50 | 160 | 0.9 | 3.5 | 0.00 | 0.59 | 0.21 | 95 | 1007.5 |
| 20260506111053 | 50 | 146 | 0.0 | 1.7 | 0.00 | 0.59 | 0.21 | 95 | 1007.4 |
| 20260506110557 | 50 | 137 | 0.0 | 2.6 | 0.00 | 0.59 | 0.21 | 95 | 1007.4 |
| 20260506110055 | 50 | 0 | 0.0 | 2.6 | 0.01 | 0.59 | 0.21 | 95 | 1007.4 |
| 20260506105557 | 50 | 174 | 0.0 | 3.5 | 0.01 | 0.59 | 0.21 | 95 | 1007.3 |
| 20260506105057 | 50 | 148 | 0.0 | 3.5 | 0.02 | 0.59 | 0.21 | 95 | 1007.4 |
| 20260506104554 | 50 | 163 | 0.0 | 2.6 | 0.02 | 0.59 | 0.21 | 95 | 1007.2 |
| 20260506104058 | 50 | 143 | 0.9 | 2.6 | 0.02 | 0.58 | 0.20 | 95 | 1007.2 |
| 20260506103557 | 50 | 151 | 0.0 | 2.6 | 0.02 | 0.58 | 0.20 | 96 | 1007.1 |
| 20260506103104 | 50 | 138 | 0.0 | 4.3 | 0.03 | 0.58 | 0.20 | 96 | 1007.1 |
| 20260506102557 | 50 | 165 | 0.9 | 4.3 | 0.03 | 0.58 | 0.20 | 96 | 1007.0 |
| 20260506102056 | 50 | 129 | 0.0 | 3.5 | 0.03 | 0.58 | 0.20 | 96 | 1006.9 |
| 20260506101556 | 50 | 0 | 0.9 | 3.5 | 0.03 | 0.58 | 0.20 | 95 | 1007.0 |
| 20260506101054 | 50 | 208 | 0.9 | 3.5 | 0.03 | 0.58 | 0.20 | 96 | 1007.0 |
| 20260506100557 | 50 | 145 | 0.0 | 3.5 | 0.03 | 0.58 | 0.20 | 95 | 1006.9 |
| 20260506100054 | 50 | 125 | 0.0 | 1.7 | 0.02 | 0.57 | 0.19 | 95 | 1006.9 |
| 20260506095557 | 50 | 122 | 0.0 | 1.7 | 0.02 | 0.57 | 0.19 | 95 | 1006.8 |
| 20260506095055 | 50 | 0 | 0.0 | 1.7 | 0.01 | 0.56 | 0.18 | 96 | 1006.8 |
| 20260506094557 | 50 | 134 | 0.0 | 0.9 | 0.01 | 0.56 | 0.18 | 96 | 1006.8 |
| 20260506094057 | 50 | 0 | 0.0 | 0.9 | 0.00 | 0.55 | 0.18 | 96 | 1006.6 |
| 20260506093559 | 50 | 169 | 0.0 | 1.7 | 0.00 | 0.55 | 0.18 | 96 | 1006.7 |
| 20260506093059 | 50 | 0 | 0.0 | 2.6 | 0.00 | 0.55 | 0.17 | 96 | 1006.7 |
| 20260506092557 | 50 | 168 | 0.9 | 2.6 | 0.00 | 0.55 | 0.17 | 96 | 1006.6 |
| 20260506092100 | 50 | 138 | 0.0 | 1.7 | 0.00 | 0.55 | 0.17 | 96 | 1006.5 |
| 20260506091554 | 50 | 16 | 0.0 | 2.6 | 0.00 | 0.55 | 0.17 | 96 | 1006.7 |
| 20260506091057 | 50 | 250 | 0.0 | 2.6 | 0.01 | 0.55 | 0.17 | 96 | 1006.6 |
| 20260506090557 | 50 | 0 | 0.0 | 0.9 | 0.01 | 0.55 | 0.17 | 96 | 1006.6 |
| 20260506090054 | 50 | 0 | 0.0 | 2.6 | 0.02 | 0.55 | 0.17 | 96 | 1006.4 |
| 20260506085557 | 50 | 122 | 0.0 | 2.6 | 0.02 | 0.55 | 0.17 | 96 | 1006.4 |
| 20260506085057 | 50 | 133 | 0.0 | 2.6 | 0.02 | 0.55 | 0.17 | 96 | 1006.3 |
| 20260506084604 | 50 | 160 | 0.0 | 2.6 | 0.03 | 0.55 | 0.17 | 96 | 1006.2 |
| 20260506084057 | 50 | 0 | 0.0 | 1.7 | 0.03 | 0.55 | 0.17 | 96 | 1006.3 |
| 20260506083557 | 50 | 0 | 0.0 | 1.7 | 0.03 | 0.55 | 0.17 | 96 | 1006.4 |
| 20260506083115 | 50 | 0 | 0.0 | 2.6 | 0.03 | 0.54 | 0.16 | 96 | 1006.3 |
| 20260506082559 | 50 | 0 | 0.0 | 2.6 | 0.03 | 0.54 | 0.16 | 96 | 1006.3 |
| 20260506082057 | 50 | 0 | 0.0 | 1.7 | 0.03 | 0.54 | 0.16 | 96 | 1006.3 |
| 20260506081554 | 49 | 132 | 0.0 | 1.7 | 0.03 | 0.54 | 0.16 | 96 | 1006.2 |
| 20260506081056 | 49 | 0 | 0.0 | 1.7 | 0.03 | 0.53 | 0.15 | 96 | 1006.3 |
| 20260506080556 | 49 | 146 | 0.0 | 1.7 | 0.03 | 0.53 | 0.15 | 96 | 1006.3 |
| 20260506080142 | 49 | 0 | 0.0 | 0.9 | 0.02 | 0.52 | 0.14 | 96 | 1006.3 |
| 20260506073057 | 49 | 172 | 0.0 | 1.7 | 0.02 | 0.51 | 0.13 | 96 | 1006.1 |
| 20260506072557 | 49 | 191 | 0.0 | 1.7 | 0.02 | 0.51 | 0.13 | 96 | 1006.1 |
| 20260506072057 | 49 | 184 | 0.9 | 1.7 | 0.01 | 0.50 | 0.12 | 96 | 1006.1 |
| 20260506071558 | 49 | 0 | 0.0 | 1.7 | 0.02 | 0.50 | 0.12 | 96 | 1006.0 |
| 20260506071056 | 49 | 0 | 0.0 | 1.7 | 0.02 | 0.50 | 0.12 | 96 | 1006.1 |
| 20260506070556 | 49 | 0 | 0.0 | 1.7 | 0.02 | 0.50 | 0.12 | 96 | 1005.9 |
| 20260506070121 | 49 | 165 | 0.0 | 0.9 | 0.02 | 0.50 | 0.12 | 96 | 1006.0 |
| 20260506062056 | 48 | 225 | 0.0 | 1.7 | 0.02 | 0.48 | 0.11 | 96 | 1005.8 |
| 20260506061557 | 48 | 221 | 0.0 | 0.9 | 0.01 | 0.48 | 0.10 | 96 | 1005.7 |
| 20260506061057 | 48 | 212 | 0.0 | 1.7 | 0.01 | 0.48 | 0.10 | 96 | 1005.8 |
| 20260506060558 | 48 | 0 | 0.0 | 1.7 | 0.01 | 0.48 | 0.10 | 96 | 1005.8 |